Lid_Strength_Index
1 1 1 1 1 0 0 0 -0 -0 -0 0 0 -0 0 0 -0 -0 -0 -0 0 0 -0 0 0 0 1 0 1 1 1 1 3 2 1 0 0 0 -0 -1 -1 -1 -1
1 1 1 1 1 1 1 0 -0 0 -0 0 -0 0 0 -0 0 0 1 0 1 1 1 1 1 0 1 0 1 1 1 1 2 3 2 1 1 0 -0 0 -0 -0 -1
1 1 1 1 1 1 1 0 0 0 0 -0 -0 0 0 0 0 -0 0 0 0 1 1 1 1 1 1 1 1 1 1 1 1 2 2 1 1 0 1 0 0 -0 -1
1 1 1 1 1 1 1 0 0 0 0 0 0 0 0 0 0 0 0 0 0 0 0 0 0 1 1 1 1 1 1 1 1 2 2 2 1 1 1 2 2 1 1
1 2 2 2 0 1 0 0 0 0 0 0 0 0 0 0 0 0 0 0 0 1 0 0 0 0 1 1 1 1 1 1 2 2 2 2 2 2 2 1 2 1 1
2 3 2 1 1 0 0 0 0 0 0 0 1 0 1 0 2 3 1 1 0 1 1 0 0 0 1 2 2 2 1 1 2 2 2 3 2 2 1 2 2 3 4
3 4 3 1 1 1 1 0 0 1 0 1 1 1 1 0 4 4 2 0 1 1 1 1 1 0 1 0 3 3 3 3 2 1 2 2 2 1 1 2 2 2 2
3 3 4 4 2 2 1 1 1 1 1 1 1 1 1 1 5 5 4 0 0 0 0 0 1 1 0 0 0 1 1 0 0 1 0 1 0 0 0 1 1 1 1
2 3 3 3 4 2 2 1 1 1 1 1 1 1 1 1 6 7 5 0 1 1 0 0 0 0 2 4 1 1 1 1 3 4 3 3 3 3 2 0 2 2 3
1 1 2 2 3 3 3 2 1 1 1 1 1 1 2 1 5 8 7 1 1 1 1 0 3 1 4 7 2 1 2 1 1 1 1 2 3 2 5 1 1 3 3
1 0 0 0 1 1 0 0 1 1 1 1 1 1 1 1 1 8 8 1 1 1 1 1 0 5 6 7 7 1 1 1 1 1 1 1 0 0 0 0 -0 1 2
0 1 1 0 0 1 0 1 1 1 2 2 2 2 1 0 3 5 10 9 3 1 1 1 1 8 9 8 6 4 5 5 1 1 1 2 1 1 1 0 -0 -0 -0
1 1 1 1 0 0 1 1 1 1 2 2 2 2 2 1 0 6 7 8 8 5 1 2 7 8 10 9 10 8 7 1 1 2 2 2 1 1 0 0 -0 -0 -0
1 1 1 1 1 0 1 1 1 1 1 2 2 2 2 1 1 3 3 2 5 5 5 2 3 5 6 5 4 3 5 2 1 2 2 1 1 1 1 1 1 1 2
1 1 1 1 1 1 1 1 1 1 2 2 3 3 3 3 1 7 8 5 6 7 8 4 2 2 2 2 1 1 1 1 2 1 1 2 1 1 1 1 1 1 2
3 2 1 1 1 1 1 1 3 6 8 9 9 6 2 7 9 12 13 13 12 11 7 3 2 2 2 2 2 2 1 2 1 1 1 1 2 2 2 1 1 2 2
3 3 2 2 2 2 1 2 2 1 6 8 9 9 9 7 9 12 13 13 13 11 6 3 2 2 2 2 2 2 2 1 1 1 1 2 2 2 2 2 2 2 2
4 4 3 3 2 2 1 1 1 2 2 2 4 7 9 10 11 11 12 11 3 7 3 2 2 2 2 2 2 2 2 1 1 2 2 2 1 2 2 2 2 2 2
4 4 4 4 3 3 2 2 1 2 2 2 1 3 5 11 11 11 11 2 2 2 2 2 1 1 2 1 1 1 1 2 1 1 1 2 2 2 2 2 2 6 5
4 4 4 4 4 4 3 2 2 2 2 2 2 1 1 2 2 2 1 1 1 2 1 1 1 1 1 1 1 1 1 2 2 2 2 1 1 1 2 2 2 2 2
5 5 4 5 5 5 4 4 4 3 4 2 1 1 8 1 1 1 1 1 1 1 3 4 4 3 3 4 4 1 1 2 2 2 2 3 2 4 4 4 3 3 2
5 6 6 6 6 5 5 5 4 5 4 3 2 1 7 1 1 1 1 2 2 3 4 4 5 5 5 6 7 6 5 3 2 3 3 3 2 2 2 2 2 2 2
6 7 7 7 7 6 6 5 5 5 5 5 3 3 3 2 2 2 2 3 4 5 6 6 6 6 5 7 8 9 9 7 7 6 5 3 2 2 2 2 2 2 2
6 7 7 7 7 7 7 6 6 6 6 6 5 4 3 4 3 3 4 4 6 6 7 8 8 8 10 10 11 11 11 11 10 7 5 4 3 5 3 3 3 4 4
5 6 7 8 8 8 8 8 7 7 7 6 6 5 5 5 5 5 6 7 8 9 9 10 10 11 12 13 14 14 16 19 13 13 6 5 5 5 5 6 6 6 6
6 6 8 9 9 9 10 10 9 8 8 8 7 6 6 6 6 7 8 9 9 10 11 10 11 12 12 13 16 18 19 18 14 16 8 7 7 8 7 7 7 7 8